Location: Newark
(47.5500°N, 8.6167°E)
Time: 15:53:29
(UTC+00:00)

Envisat - Pass Details

Date: 01 February 2020
Orbit: 764 x 766 km, 98.1° (Epoch: 17 February)

Event Time Altitude Azimuth Distance (km) Brightness Sun altitude
Rises 18:08:19 0° 197° (SSW) 3,220 6.6 -17.4°
Reaches altitude 10° 18:10:58 10° 210° (SSW) 2,298 5.9 -17.8°
Maximum altitude 18:15:12 26° 267° (W) 1,469 5.3 -18.5°
Drops below altitude 10° 18:19:27 10° 324° (NW) 2,312 5.9 -19.3°
Sets 18:22:08 0° 337° (NNW) 3,243 6.5 -19.7°
